,,,PA_Meas_PMT16A,,PR_Meas_QMR101_102,,RH_Meas_QMH101,,SR_Meas_QMS101,,TA_Meas_QMH101,,GenWind,,GenWind,
date,time,status,PA,status,PR,status,RH,status,SR,status,TA,status,DirAvg,status,SpdAvg,
2009-01-20, 00:00:04,VALID,1010.05,VALID,0,VALID,92.4851,VALID,0,VALID,23.926,VALID,325,VALID,0.932031,
2009-01-20, 00:01:04,VALID,1010.06,VALID,0,VALID,92.3936,VALID,0,VALID,23.926,VALID,298,VALID,0.898438,
2009-01-20, 00:02:04,VALID,1010.05,VALID,0,VALID,92.2411,VALID,0.105969,VALID,23.926,VALID,313,VALID,0.565625,
2009-01-20, 00:03:04,VALID,1010.04,VALID,0,VALID,92.142,VALID,0.105969,VALID,23.965,VALID,312,VALID,0.525,
2009-01-20, 00:04:04,VALID,1010.03,VALID,0,VALID,92.0886,VALID,0.105969,VALID,23.965,VALID,296,VALID,0.428906,
2009-01-20, 00:05:04,VALID,1010.02,VALID,0,VALID,92.1572,VALID,0.105969,VALID,24.004,VALID,300,VALID,0.117578,
2009-01-20, 00:06:04,VALID,1010,VALID,0,VALID,92.142,VALID,0.105969,VALID,23.9845,VALID,8,VALID,0.214844,
2009-01-20, 00:07:04,VALID,1009.99,VALID,0,VALID,92.1344,VALID,0.105969,VALID,23.9845,VALID,332,VALID,0.554688,
2009-01-20, 00:08:04,VALID,1009.99,VALID,0,VALID,92.2259,VALID,0.105969,VALID,23.9455,VALID,342,VALID,0.719922,
2009-01-20, 00:09:04,VALID,1009.99,VALID,0,VALID,92.3174,VALID,0.105969,VALID,23.926,VALID,358,VALID,0.735156,
2009-01-20, 00:10:04,VALID,1009.98,VALID,0,VALID,92.4318,VALID,0.105969,VALID,23.926,VALID,357,VALID,0.279687,
2009-01-20, 00:11:04,VALID,1009.95,VALID,0,VALID,92.4699,VALID,0,VALID,23.9084,VALID,357,VALID,0.336328,
2009-01-20, 00:12:04,VALID,1009.95,VALID,0,VALID,92.508,VALID,0.105969,VALID,23.9065,VALID,305,VALID,0.587109,
2009-01-20, 00:13:04,VALID,1009.93,VALID,0,VALID,92.5766,VALID,0,VALID,23.9084,VALID,314,VALID,0.362109,
2009-01-20, 00:14:04,VALID,1009.91,VALID,0,VALID,92.6224,VALID,0,VALID,23.9084,VALID,348,VALID,0.258594,
2009-01-20, 00:15:04,VALID,1009.91,VALID,0,VALID,92.63,VALID,0,VALID,23.8676,VALID,351,VALID,0.439063,
2009-01-20, 00:16:04,VALID,1009.92,VALID,0,VALID,92.6605,VALID,0,VALID,23.8889,VALID,351,VALID,0.758984,
2009-01-20, 00:17:04,VALID,1009.87,VALID,0,VALID,92.7292,VALID,0,VALID,23.8889,VALID,349,VALID,0.228906,
2009-01-20, 00:18:04,VALID,1009.91,VALID,0,VALID,92.7597,VALID,0,VALID,23.8694,VALID,349,VALID,0.38125,
2009-01-20, 00:19:04,VALID,1009.9,VALID,0,VALID,92.752,VALID,0,VALID,23.8499,VALID,349,VALID,0,
2009-01-20, 00:20:04,VALID,1009.89,VALID,0,VALID,92.813,VALID,0,VALID,23.8091,VALID,354,VALID,0.273438,
2009-01-20, 00:21:04,VALID,1009.86,VALID,0,VALID,92.8664,VALID,0,VALID,23.8109,VALID,341,VALID,0.739844,
2009-01-20, 00:22:04,VALID,1009.86,VALID,0,VALID,92.9808,VALID,0,VALID,23.8499,VALID,336,VALID,0.1875,
2009-01-20, 00:23:04,VALID,1009.88,VALID,0,VALID,93.0113,VALID,0,VALID,23.8304,VALID,336,VALID,0.135156,
2009-01-20, 00:24:04,VALID,1009.85,VALID,0,VALID,93.0189,VALID,0,VALID,23.7896,VALID,336,VALID,0.267188,
2009-01-20, 00:25:04,VALID,1009.88,VALID,0,VALID,92.9884,VALID,0,VALID,23.7914,VALID,337,VALID,0.582031,
2009-01-20, 00:26:04,VALID,1009.86,VALID,0,VALID,93.0189,VALID,0,VALID,23.7914,VALID,324,VALID,0.400391,
2009-01-20, 00:27:04,VALID,1009.87,VALID,0,VALID,92.9961,VALID,0,VALID,23.7914,VALID,342,VALID,0.394141,
2009-01-20, 00:28:04,VALID,1009.84,VALID,0,VALID,93.0494,VALID,0,VALID,23.7914,VALID,330,VALID,0.566016,
2009-01-20, 00:29:04,VALID,1009.81,VALID,0,VALID,93.1105,VALID,0,VALID,23.772,VALID,313,VALID,0.0964844,
2009-01-20, 00:30:04,VALID,1009.83,VALID,0,VALID,93.1257,VALID,0,VALID,23.772,VALID,314,VALID,0.300391,
2009-01-20, 00:31:04,VALID,1009.8,VALID,0,VALID,93.1257,VALID,0,VALID,23.772,VALID,319,VALID,0.0476562,
2009-01-20, 00:32:04,VALID,1009.78,VALID,0,VALID,93.1715,VALID,0,VALID,23.7525,VALID,337,VALID,0.466797,
2009-01-20, 00:33:04,VALID,1009.76,VALID,0,VALID,93.1867,VALID,0,VALID,23.733,VALID,340,VALID,0.216797,
2009-01-20, 00:34:04,VALID,1009.75,VALID,0,VALID,93.202,VALID,0,VALID,23.7117,VALID,342,VALID,0.424609,
2009-01-20, 00:35:04,VALID,1009.75,VALID,0,VALID,93.2401,VALID,0,VALID,23.7135,VALID,321,VALID,0.138281,
2009-01-20, 00:36:04,VALID,1009.72,VALID,0,VALID,93.3087,VALID,0,VALID,23.7117,VALID,324,VALID,0.604297,
2009-01-20, 00:37:04,VALID,1009.72,VALID,0,VALID,93.3621,VALID,0,VALID,23.733,VALID,318,VALID,0.619531,
2009-01-20, 00:38:04,VALID,1009.71,VALID,0,VALID,93.324,VALID,0,VALID,23.7525,VALID,321,VALID,0.447656,
2009-01-20, 00:39:04,VALID,1009.69,VALID,0,VALID,93.263,VALID,0,VALID,23.7525,VALID,318,VALID,0.304297,
2009-01-20, 00:40:04,VALID,1009.7,VALID,0,VALID,93.2096,VALID,0,VALID,23.772,VALID,275,VALID,0.0148437,
2009-01-20, 00:41:04,VALID,1009.69,VALID,0,VALID,93.1638,VALID,0,VALID,23.7701,VALID,268,VALID,0.390625,
2009-01-20, 00:42:04,VALID,1009.68,VALID,0,VALID,93.1028,VALID,0.105969,VALID,23.7896,VALID,293,VALID,0.0425781,
2009-01-20, 00:43:04,VALID,1009.68,VALID,0,VALID,93.0266,VALID,0,VALID,23.7896,VALID,281,VALID,0,
2009-01-20, 00:44:04,VALID,1009.63,VALID,0,VALID,92.9503,VALID,0,VALID,23.7896,VALID,281,VALID,0.227344,
2009-01-20, 00:45:04,VALID,1009.64,VALID,0,VALID,92.8969,VALID,0,VALID,23.7896,VALID,281,VALID,0.0890625,
2009-01-20, 00:46:04,VALID,1009.61,VALID,0,VALID,92.8969,VALID,0,VALID,23.7896,VALID,276,VALID,0.498437,
2009-01-20, 00:47:04,VALID,1009.56,VALID,0,VALID,92.8588,VALID,0,VALID,23.8109,VALID,275,VALID,0.569141,
2009-01-20, 00:48:04,VALID,1009.58,VALID,0,VALID,92.8054,VALID,0,VALID,23.7878,VALID,310,VALID,0.321875,
2009-01-20, 00:49:04,VALID,1009.55,VALID,0,VALID,92.8054,VALID,0,VALID,23.8109,VALID,248,VALID,0.362109,
2009-01-20, 00:50:04,VALID,1009.54,VALID,0,VALID,92.7749,VALID,0,VALID,23.7701,VALID,331,VALID,0.334375,
2009-01-20, 00:51:04,VALID,1009.54,VALID,0,VALID,92.7749,VALID,0.105969,VALID,23.7701,VALID,311,VALID,0.0503906,
2009-01-20, 00:52:04,VALID,1009.55,VALID,0,VALID,92.7978,VALID,0,VALID,23.7507,VALID,311,VALID,0,
2009-01-20, 00:53:04,VALID,1009.54,VALID,0,VALID,92.8969,VALID,0.105969,VALID,23.7117,VALID,313,VALID,0.213672,
2009-01-20, 00:54:04,VALID,1009.53,VALID,0,VALID,93.0494,VALID,0,VALID,23.6922,VALID,290,VALID,0.510938,
2009-01-20, 00:55:04,VALID,1009.54,VALID,0,VALID,93.1181,VALID,0,VALID,23.6727,VALID,315,VALID,0.443359,
2009-01-20, 00:56:04,VALID,1009.48,VALID,0,VALID,93.263,VALID,0,VALID,23.655,VALID,308,VALID,0.294531,
2009-01-20, 00:57:04,VALID,1009.49,VALID,0,VALID,93.324,VALID,0,VALID,23.6356,VALID,298,VALID,0.478906,
2009-01-20, 00:58:04,VALID,1009.47,VALID,0,VALID,93.3773,VALID,0,VALID,23.6161,VALID,306,VALID,0.216797,
2009-01-20, 00:59:04,VALID,1009.48,VALID,0,VALID,93.4384,VALID,0,VALID,23.5966,VALID,306,VALID,0,
2009-01-20, 01:00:04,VALID,1009.48,VALID,0,VALID,93.5299,VALID,0,VALID,23.5966,VALID,306,VALID,0.207813,
2009-01-20, 01:01:04,VALID,1009.47,VALID,0,VALID,93.568,VALID,0,VALID,23.5576,VALID,310,VALID,0.319922,
2009-01-20, 01:02:04,VALID,1009.46,VALID,0,VALID,93.6748,VALID,0,VALID,23.5594,VALID,357,VALID,0.382422,
2009-01-20, 01:03:04,VALID,1009.46,VALID,0,VALID,93.751,VALID,0,VALID,23.5381,VALID,342,VALID,0.351953,
2009-01-20, 01:04:04,VALID,1009.43,VALID,0,VALID,93.8044,VALID,0,VALID,23.4992,VALID,342,VALID,0.232812,
2009-01-20, 01:05:04,VALID,1009.43,VALID,0,VALID,93.8349,VALID,0,VALID,23.4992,VALID,342,VALID,0,
2009-01-20, 01:06:04,VALID,1009.43,VALID,0,VALID,93.8807,VALID,0,VALID,23.4797,VALID,344,VALID,0.505078,
2009-01-20, 01:07:04,VALID,1009.43,VALID,0,VALID,93.9417,VALID,0,VALID,23.4602,VALID,350,VALID,0.328906,
2009-01-20, 01:08:04,VALID,1009.41,VALID,0,VALID,94.0179,VALID,0,VALID,23.4407,VALID,341,VALID,0.284766,
2009-01-20, 01:09:04,VALID,1009.39,VALID,0,VALID,94.0637,VALID,0,VALID,23.4212,VALID,341,VALID,0,
2009-01-20, 01:10:04,VALID,1009.4,VALID,0,VALID,94.1399,VALID,0,VALID,23.4017,VALID,341,VALID,0.0570313,
2009-01-20, 01:11:04,VALID,1009.38,VALID,0,VALID,94.2238,VALID,0,VALID,23.4017,VALID,281,VALID,0.520312,
2009-01-20, 01:12:04,VALID,1009.37,VALID,0,VALID,94.3382,VALID,0,VALID,23.4212,VALID,305,VALID,0.336328,
2009-01-20, 01:13:04,VALID,1009.38,VALID,0,VALID,94.3687,VALID,0,VALID,23.4212,VALID,305,VALID,0.534375,
2009-01-20, 01:14:04,VALID,1009.38,VALID,0,VALID,94.3839,VALID,0,VALID,23.4407,VALID,302,VALID,1.00156,
2009-01-20, 01:15:04,VALID,1009.37,VALID,0,VALID,94.3382,VALID,0,VALID,23.4602,VALID,298,VALID,0.449609,
2009-01-20, 01:16:04,VALID,1009.33,VALID,0,VALID,94.2314,VALID,0,VALID,23.4602,VALID,306,VALID,0.0171875,
2009-01-20, 01:17:04,VALID,1009.34,VALID,0,VALID,94.1323,VALID,0,VALID,23.4407,VALID,319,VALID,0.272266,
2009-01-20, 01:18:04,VALID,1009.33,VALID,0,VALID,94.1399,VALID,0,VALID,23.4212,VALID,335,VALID,0.591016,
2009-01-20, 01:19:04,VALID,1009.34,VALID,0,VALID,94.1247,VALID,0,VALID,23.4212,VALID,349,VALID,1.12773,
2009-01-20, 01:20:04,VALID,1009.33,VALID,0,VALID,94.1933,VALID,0,VALID,23.4,VALID,321,VALID,0.0550781,
2009-01-20, 01:21:04,VALID,1009.3,VALID,0,VALID,94.2162,VALID,0,VALID,23.4017,VALID,321,VALID,0,
2009-01-20, 01:22:04,VALID,1009.26,VALID,0,VALID,94.2238,VALID,0,VALID,23.4017,VALID,321,VALID,0,
2009-01-20, 01:23:04,VALID,1009.22,VALID,0,VALID,94.2391,VALID,0,VALID,23.4017,VALID,357,VALID,0.294141,
2009-01-20, 01:24:04,VALID,1009.22,VALID,0,VALID,94.3077,VALID,0,VALID,23.423,VALID,306,VALID,0.780469,
2009-01-20, 01:25:04,VALID,1009.21,VALID,0,VALID,94.3229,VALID,0,VALID,23.4212,VALID,328,VALID,0.286719,
2009-01-20, 01:26:04,VALID,1009.2,VALID,0,VALID,94.3153,VALID,0,VALID,23.4017,VALID,329,VALID,0.00664063,
2009-01-20, 01:27:04,VALID,1009.17,VALID,0,VALID,94.2848,VALID,0,VALID,23.3805,VALID,338,VALID,0.0105469,
2009-01-20, 01:28:04,VALID,1009.18,VALID,0,VALID,94.2924,VALID,0,VALID,23.3805,VALID,319,VALID,0.309766,
2009-01-20, 01:29:04,VALID,1009.15,VALID,0,VALID,94.3153,VALID,0,VALID,23.361,VALID,358,VALID,0.0351563,
2009-01-20, 01:30:04,VALID,1009.13,VALID,0,VALID,94.3687,VALID,0.105969,VALID,23.3398,VALID,345,VALID,0.247266,
2009-01-20, 01:31:04,VALID,1009.11,VALID,0,VALID,94.4145,VALID,0.105969,VALID,23.361,VALID,333,VALID,0.505859,
2009-01-20, 01:32:04,VALID,1009.11,VALID,0,VALID,94.4373,VALID,0.105969,VALID,23.361,VALID,352,VALID,0.522266,
2009-01-20, 01:33:04,VALID,1009.07,VALID,0,VALID,94.4831,VALID,0.105969,VALID,23.361,VALID,319,VALID,0.539844,
2009-01-20, 01:34:04,VALID,1009.07,VALID,0,VALID,94.4526,VALID,0,VALID,23.361,VALID,319,VALID,0.00234375,
2009-01-20, 01:35:04,VALID,1009.02,VALID,0,VALID,94.445,VALID,0,VALID,23.361,VALID,319,VALID,0.336719,
2009-01-20, 01:36:04,VALID,1009.05,VALID,0,VALID,94.4145,VALID,0,VALID,23.361,VALID,341,VALID,0.247266,
2009-01-20, 01:37:04,VALID,1009.04,VALID,0,VALID,94.4297,VALID,0,VALID,23.3415,VALID,345,VALID,0,
2009-01-20, 01:38:04,VALID,1009,VALID,0,VALID,94.4068,VALID,0.105969,VALID,23.322,VALID,13,VALID,0.327344,
2009-01-20, 01:39:04,VALID,1009,VALID,0,VALID,94.4297,VALID,0.105969,VALID,23.3415,VALID,343,VALID,0.460938,
2009-01-20, 01:40:04,VALID,1009,VALID,0,VALID,94.4602,VALID,0,VALID,23.3433,VALID,345,VALID,0.361719,
2009-01-20, 01:41:04,VALID,1009.02,VALID,0,VALID,94.4678,VALID,0,VALID,23.3238,VALID,346,VALID,0.0277344,
2009-01-20, 01:42:04,VALID,1008.99,VALID,0,VALID,94.4907,VALID,0,VALID,23.3238,VALID,338,VALID,0.533203,
2009-01-20, 01:43:04,VALID,1009,VALID,0,VALID,94.4983,VALID,0,VALID,23.3238,VALID,349,VALID,0.153516,
2009-01-20, 01:44:04,VALID,1008.98,VALID,0,VALID,94.4907,VALID,0,VALID,23.2848,VALID,334,VALID,0.377734,
2009-01-20, 01:45:04,VALID,1008.98,VALID,0,VALID,94.4907,VALID,0,VALID,23.2848,VALID,31,VALID,0.398438,
2009-01-20, 01:46:04,VALID,1008.99,VALID,0,VALID,94.4907,VALID,0,VALID,23.2848,VALID,19,VALID,0.444531,
2009-01-20, 01:47:04,VALID,1009,VALID,0,VALID,94.4983,VALID,0,VALID,23.2636,VALID,24,VALID,0.379297,
2009-01-20, 01:48:04,VALID,1008.97,VALID,0,VALID,94.4983,VALID,0,VALID,23.2654,VALID,322,VALID,0.414844,
2009-01-20, 01:49:04,VALID,1009,VALID,0,VALID,94.4831,VALID,0,VALID,23.2654,VALID,319,VALID,0,
2009-01-20, 01:50:04,VALID,1008.99,VALID,0,VALID,94.4602,VALID,0,VALID,23.2459,VALID,319,VALID,0,
2009-01-20, 01:51:04,VALID,1008.99,VALID,0,VALID,94.4221,VALID,0,VALID,23.2069,VALID,319,VALID,0,
2009-01-20, 01:52:04,VALID,1008.94,VALID,0,VALID,94.4678,VALID,0,VALID,23.1662,VALID,319,VALID,0,
2009-01-20, 01:53:04,VALID,1008.95,VALID,0,VALID,94.5136,VALID,0,VALID,23.1874,VALID,319,VALID,0,
2009-01-20, 01:54:04,VALID,1008.98,VALID,0,VALID,94.5746,VALID,0,VALID,23.1892,VALID,2,VALID,0,
2009-01-20, 01:55:04,VALID,1008.97,VALID,0,VALID,94.6127,VALID,0,VALID,23.1485,VALID,2,VALID,0,
2009-01-20, 01:56:04,VALID,1008.98,VALID,0,VALID,94.6661,VALID,0,VALID,23.129,VALID,2,VALID,0,
2009-01-20, 01:57:04,VALID,1008.98,VALID,0,VALID,94.6661,VALID,0,VALID,23.1485,VALID,353,VALID,0,
2009-01-20, 01:58:04,VALID,1008.97,VALID,0,VALID,94.7119,VALID,0,VALID,23.1095,VALID,353,VALID,0,
2009-01-20, 01:59:04,VALID,1008.97,VALID,0,VALID,94.7271,VALID,0,VALID,23.09,VALID,353,VALID,0,
2009-01-20, 02:00:04,VALID,1008.96,VALID,0,VALID,94.7576,VALID,0,VALID,23.09,VALID,353,VALID,0,
2009-01-20, 02:01:04,VALID,1008.97,VALID,0,VALID,94.811,VALID,0,VALID,23.09,VALID,353,VALID,0,
2009-01-20, 02:02:04,VALID,1008.97,VALID,0,VALID,94.8034,VALID,0,VALID,23.09,VALID,353,VALID,0,
2009-01-20, 02:03:04,VALID,1008.98,VALID,0,VALID,94.8415,VALID,0,VALID,23.0705,VALID,353,VALID,0,
2009-01-20, 02:04:04,VALID,1009,VALID,0,VALID,94.8491,VALID,0,VALID,23.0705,VALID,353,VALID,0,
2009-01-20, 02:05:04,VALID,1008.99,VALID,0,VALID,94.8568,VALID,0,VALID,23.0705,VALID,353,VALID,0,
2009-01-20, 02:06:04,VALID,1008.99,VALID,0,VALID,94.8491,VALID,0,VALID,23.0511,VALID,353,VALID,0,
2009-01-20, 02:07:04,VALID,1008.94,VALID,0,VALID,94.8949,VALID,0,VALID,23.0298,VALID,353,VALID,0,
2009-01-20, 02:08:04,VALID,1008.94,VALID,0,VALID,94.9254,VALID,0,VALID,23.0705,VALID,353,VALID,0,
2009-01-20, 02:09:04,VALID,1008.94,VALID,0,VALID,94.9178,VALID,0,VALID,23.0511,VALID,353,VALID,0,
2009-01-20, 02:10:04,VALID,1008.93,VALID,0,VALID,94.9483,VALID,0,VALID,23.0316,VALID,353,VALID,0,
2009-01-20, 02:11:04,VALID,1008.93,VALID,0,VALID,94.9788,VALID,0,VALID,23.0316,VALID,353,VALID,0,
2009-01-20, 02:12:04,VALID,1008.89,VALID,0,VALID,94.9864,VALID,0,VALID,23.0316,VALID,353,VALID,0,
2009-01-20, 02:13:04,VALID,1008.88,VALID,0,VALID,95.0169,VALID,0,VALID,23.0121,VALID,353,VALID,0,
2009-01-20, 02:14:04,VALID,1008.89,VALID,0,VALID,95.0474,VALID,0,VALID,23.0121,VALID,353,VALID,0,
2009-01-20, 02:15:04,VALID,1008.87,VALID,0,VALID,95.0855,VALID,0,VALID,23.0103,VALID,353,VALID,0,
2009-01-20, 02:16:04,VALID,1008.84,VALID,0,VALID,95.1008,VALID,0,VALID,23.0121,VALID,353,VALID,0,
2009-01-20, 02:17:04,VALID,1008.86,VALID,0,VALID,95.1389,VALID,0,VALID,22.9926,VALID,353,VALID,0,
2009-01-20, 02:18:04,VALID,1008.83,VALID,0,VALID,95.1542,VALID,0,VALID,23.0121,VALID,353,VALID,0,
2009-01-20, 02:19:04,VALID,1008.84,VALID,0,VALID,95.1847,VALID,0,VALID,22.9926,VALID,353,VALID,0,
2009-01-20, 02:20:04,VALID,1008.84,VALID,0,VALID,95.1847,VALID,0,VALID,22.9926,VALID,353,VALID,0,
2009-01-20, 02:21:04,VALID,1008.83,VALID,0,VALID,95.1847,VALID,0,VALID,22.9731,VALID,353,VALID,0,
2009-01-20, 02:22:04,VALID,1008.83,VALID,0,VALID,95.1999,VALID,0,VALID,22.9324,VALID,353,VALID,0,
2009-01-20, 02:23:04,VALID,1008.82,VALID,0,VALID,95.1999,VALID,0,VALID,22.9342,VALID,353,VALID,0,
2009-01-20, 02:24:04,VALID,1008.83,VALID,0,VALID,95.2304,VALID,0,VALID,22.9147,VALID,353,VALID,0,
2009-01-20, 02:25:04,VALID,1008.81,VALID,0,VALID,95.2152,VALID,0,VALID,22.8545,VALID,36,VALID,0,
2009-01-20, 02:26:04,VALID,1008.8,VALID,0,VALID,95.2457,VALID,0,VALID,22.8757,VALID,36,VALID,0,
2009-01-20, 02:27:04,VALID,1008.8,VALID,0,VALID,95.2762,VALID,0,VALID,22.8545,VALID,36,VALID,0,
2009-01-20, 02:28:04,VALID,1008.79,VALID,0,VALID,95.3143,VALID,0,VALID,22.8562,VALID,59,VALID,0,
2009-01-20, 02:29:04,VALID,1008.77,VALID,0,VALID,95.299,VALID,0,VALID,22.8368,VALID,59,VALID,0,
2009-01-20, 02:30:04,VALID,1008.79,VALID,0,VALID,95.3219,VALID,0,VALID,22.8562,VALID,59,VALID,0,
2009-01-20, 02:31:04,VALID,1008.79,VALID,0,VALID,95.3524,VALID,0,VALID,22.835,VALID,59,VALID,0,
2009-01-20, 02:32:04,VALID,1008.78,VALID,0,VALID,95.3905,VALID,0,VALID,22.8562,VALID,59,VALID,0,
2009-01-20, 02:33:04,VALID,1008.76,VALID,0,VALID,95.4134,VALID,0,VALID,22.8562,VALID,59,VALID,0,
2009-01-20, 02:34:04,VALID,1008.75,VALID,0,VALID,95.4134,VALID,0,VALID,22.835,VALID,59,VALID,0,
2009-01-20, 02:35:04,VALID,1008.73,VALID,0,VALID,95.4668,VALID,0,VALID,22.8368,VALID,59,VALID,0,
2009-01-20, 02:36:04,VALID,1008.73,VALID,0,VALID,95.4744,VALID,0.105969,VALID,22.8368,VALID,59,VALID,0,
2009-01-20, 02:37:04,VALID,1008.71,VALID,0,VALID,95.4897,VALID,0,VALID,22.8562,VALID,59,VALID,0,
2009-01-20, 02:38:04,VALID,1008.71,VALID,0,VALID,95.5049,VALID,0,VALID,22.8368,VALID,59,VALID,0,
2009-01-20, 02:39:04,VALID,1008.74,VALID,0,VALID,95.4897,VALID,0,VALID,22.8173,VALID,59,VALID,0,
2009-01-20, 02:40:04,VALID,1008.72,VALID,0,VALID,95.5049,VALID,0,VALID,22.7961,VALID,59,VALID,0,
2009-01-20, 02:41:04,VALID,1008.72,VALID,0,VALID,95.5354,VALID,0,VALID,22.8155,VALID,59,VALID,0,
2009-01-20, 02:42:04,VALID,1008.71,VALID,0,VALID,95.5659,VALID,0,VALID,22.8155,VALID,59,VALID,0,
2009-01-20, 02:43:04,VALID,1008.71,VALID,0,VALID,95.6041,VALID,0,VALID,22.835,VALID,59,VALID,0,
2009-01-20, 02:44:04,VALID,1008.73,VALID,0,VALID,95.5964,VALID,0,VALID,22.8368,VALID,59,VALID,0,
2009-01-20, 02:45:04,VALID,1008.69,VALID,0,VALID,95.6041,VALID,0.105969,VALID,22.8368,VALID,59,VALID,0,
2009-01-20, 02:46:04,VALID,1008.68,VALID,0,VALID,95.6193,VALID,0,VALID,22.835,VALID,59,VALID,0,
2009-01-20, 02:47:04,VALID,1008.69,VALID,0,VALID,95.6269,VALID,0.105969,VALID,22.8155,VALID,59,VALID,0,
2009-01-20, 02:48:04,VALID,1008.67,VALID,0,VALID,95.6269,VALID,0,VALID,22.8155,VALID,59,VALID,0,
2009-01-20, 02:49:04,VALID,1008.69,VALID,0,VALID,95.6498,VALID,0.105969,VALID,22.8368,VALID,59,VALID,0,
2009-01-20, 02:50:04,VALID,1008.68,VALID,0,VALID,95.6422,VALID,0,VALID,22.8155,VALID,59,VALID,0,
2009-01-20, 02:51:04,VALID,1008.67,VALID,0,VALID,95.6803,VALID,0,VALID,22.8173,VALID,59,VALID,0,
2009-01-20, 02:52:04,VALID,1008.66,VALID,0,VALID,95.688,VALID,0,VALID,22.835,VALID,59,VALID,0,
2009-01-20, 02:53:04,VALID,1008.67,VALID,0,VALID,95.7337,VALID,0,VALID,22.8562,VALID,59,VALID,0,
2009-01-20, 02:54:04,VALID,1008.66,VALID,0,VALID,95.688,VALID,0,VALID,22.8368,VALID,59,VALID,0,
2009-01-20, 02:55:04,VALID,1008.65,VALID,0,VALID,95.6727,VALID,0,VALID,22.8173,VALID,59,VALID,0,
2009-01-20, 02:56:04,VALID,1008.66,VALID,0,VALID,95.7032,VALID,0,VALID,22.7961,VALID,59,VALID,0,
2009-01-20, 02:57:04,VALID,1008.65,VALID,0,VALID,95.7032,VALID,0,VALID,22.8173,VALID,59,VALID,0,
2009-01-20, 02:58:04,VALID,1008.67,VALID,0,VALID,95.6498,VALID,0,VALID,22.7978,VALID,59,VALID,0,
2009-01-20, 02:59:04,VALID,1008.66,VALID,0,VALID,95.6651,VALID,0,VALID,22.7571,VALID,59,VALID,0,
2009-01-20, 03:00:04,VALID,1008.67,VALID,0,VALID,95.6269,VALID,0,VALID,22.7588,VALID,59,VALID,0,
2009-01-20, 03:01:04,VALID,1008.65,VALID,0,VALID,95.6269,VALID,0,VALID,22.7588,VALID,59,VALID,0,
2009-01-20, 03:02:04,VALID,1008.67,VALID,0,VALID,95.6346,VALID,0,VALID,22.7199,VALID,59,VALID,0,
2009-01-20, 03:03:04,VALID,1008.67,VALID,0,VALID,95.5888,VALID,0,VALID,22.6809,VALID,59,VALID,0,
2009-01-20, 03:04:04,VALID,1008.65,VALID,0,VALID,95.5964,VALID,0,VALID,22.6809,VALID,59,VALID,0,
2009-01-20, 03:05:04,VALID,1008.68,VALID,0,VALID,95.5812,VALID,0,VALID,22.6809,VALID,59,VALID,0,
2009-01-20, 03:06:04,VALID,1008.71,VALID,0,VALID,95.5659,VALID,0,VALID,22.6809,VALID,59,VALID,0,
2009-01-20, 03:07:04,VALID,1008.7,VALID,0,VALID,95.5583,VALID,0,VALID,22.6597,VALID,59,VALID,0,
2009-01-20, 03:08:04,VALID,1008.7,VALID,0,VALID,95.5736,VALID,0,VALID,22.7004,VALID,59,VALID,0,
2009-01-20, 03:09:04,VALID,1008.67,VALID,0,VALID,95.5888,VALID,0,VALID,22.7182,VALID,59,VALID,0,
2009-01-20, 03:10:04,VALID,1008.69,VALID,0,VALID,95.6498,VALID,0,VALID,22.7394,VALID,59,VALID,0,
2009-01-20, 03:11:04,VALID,1008.67,VALID,0,VALID,95.6574,VALID,0,VALID,22.7588,VALID,59,VALID,0,
2009-01-20, 03:12:04,VALID,1008.66,VALID,0,VALID,95.6956,VALID,0,VALID,22.7766,VALID,166,VALID,0,
2009-01-20, 03:13:04,VALID,1008.66,VALID,0,VALID,95.7261,VALID,0,VALID,22.7961,VALID,176,VALID,0,
2009-01-20, 03:14:04,VALID,1008.66,VALID,0,VALID,95.7413,VALID,0,VALID,22.8155,VALID,176,VALID,0,
2009-01-20, 03:15:04,VALID,1008.67,VALID,0,VALID,95.7032,VALID,0.105969,VALID,22.7961,VALID,176,VALID,0,
2009-01-20, 03:16:04,VALID,1008.66,VALID,0,VALID,95.6956,VALID,0,VALID,22.7978,VALID,176,VALID,0,
2009-01-20, 03:17:04,VALID,1008.67,VALID,0,VALID,95.6956,VALID,0,VALID,22.7978,VALID,176,VALID,0,
2009-01-20, 03:18:04,VALID,1008.69,VALID,0,VALID,95.6956,VALID,0,VALID,22.7571,VALID,176,VALID,0,
2009-01-20, 03:19:04,VALID,1008.7,VALID,0,VALID,95.6574,VALID,0,VALID,22.7588,VALID,176,VALID,0,
2009-01-20, 03:20:04,VALID,1008.69,VALID,0,VALID,95.6422,VALID,0,VALID,22.7783,VALID,176,VALID,0,
2009-01-20, 03:21:04,VALID,1008.69,VALID,0,VALID,95.6727,VALID,0,VALID,22.7978,VALID,176,VALID,0,
2009-01-20, 03:22:04,VALID,1008.68,VALID,0,VALID,95.688,VALID,0,VALID,22.7961,VALID,176,VALID,0,
2009-01-20, 03:23:04,VALID,1008.66,VALID,0,VALID,95.7032,VALID,0,VALID,22.8562,VALID,176,VALID,0,
2009-01-20, 03:24:04,VALID,1008.65,VALID,0,VALID,95.7108,VALID,0,VALID,22.8757,VALID,176,VALID,0,
2009-01-20, 03:25:04,VALID,1008.65,VALID,0,VALID,95.7032,VALID,0,VALID,22.8545,VALID,176,VALID,0,
2009-01-20, 03:26:04,VALID,1008.65,VALID,0,VALID,95.7185,VALID,0,VALID,22.9147,VALID,176,VALID,0,
2009-01-20, 03:27:05,VALID,1008.65,VALID,0,VALID,95.7642,VALID,0,VALID,22.9342,VALID,176,VALID,0,
2009-01-20, 03:28:05,VALID,1008.63,VALID,0,VALID,95.7718,VALID,0,VALID,22.9536,VALID,176,VALID,0,
2009-01-20, 03:29:05,VALID,1008.64,VALID,0,VALID,95.7795,VALID,0,VALID,22.9926,VALID,176,VALID,0,
2009-01-20, 03:30:05,VALID,1008.63,VALID,0,VALID,95.7871,VALID,0,VALID,22.9714,VALID,176,VALID,0,
2009-01-20, 03:31:05,VALID,1008.63,VALID,0,VALID,95.7795,VALID,0,VALID,22.9536,VALID,176,VALID,0,
2009-01-20, 03:32:05,VALID,1008.62,VALID,0,VALID,95.7871,VALID,0,VALID,22.9519,VALID,176,VALID,0,
2009-01-20, 03:33:05,VALID,1008.59,VALID,0,VALID,95.7947,VALID,0,VALID,22.9731,VALID,176,VALID,0,
2009-01-20, 03:34:05,VALID,1008.61,VALID,0,VALID,95.7718,VALID,0,VALID,22.9536,VALID,176,VALID,0,
2009-01-20, 03:35:05,VALID,1008.59,VALID,0,VALID,95.7566,VALID,0,VALID,22.9714,VALID,176,VALID,0,
2009-01-20, 03:36:05,VALID,1008.62,VALID,0,VALID,95.7795,VALID,0,VALID,22.9926,VALID,176,VALID,0,
2009-01-20, 03:37:05,VALID,1008.59,VALID,0,VALID,95.7718,VALID,0,VALID,22.9926,VALID,176,VALID,0,
2009-01-20, 03:38:05,VALID,1008.6,VALID,0,VALID,95.749,VALID,0,VALID,22.9926,VALID,176,VALID,0,
2009-01-20, 03:39:05,VALID,1008.56,VALID,0,VALID,95.7642,VALID,0,VALID,22.9926,VALID,176,VALID,0,
2009-01-20, 03:40:05,VALID,1008.56,VALID,0,VALID,95.7795,VALID,0,VALID,23.0316,VALID,176,VALID,0,
2009-01-20, 03:41:05,VALID,1008.62,VALID,0,VALID,95.7871,VALID,0.105969,VALID,23.0493,VALID,176,VALID,0,
2009-01-20, 03:42:05,VALID,1008.58,VALID,0,VALID,95.7871,VALID,0.105969,VALID,23.0476,VALID,176,VALID,0,
2009-01-20, 03:43:05,VALID,1008.59,VALID,0,VALID,95.7947,VALID,0.105969,VALID,23.0883,VALID,176,VALID,0,
2009-01-20, 03:44:05,VALID,1008.61,VALID,0,VALID,95.8176,VALID,0.105969,VALID,23.1077,VALID,176,VALID,0,
2009-01-20, 03:45:05,VALID,1008.61,VALID,0,VALID,95.7871,VALID,0.105969,VALID,23.1272,VALID,176,VALID,0,
2009-01-20, 03:46:05,VALID,1008.64,VALID,0,VALID,95.81,VALID,0.105969,VALID,23.1255,VALID,176,VALID,0,
2009-01-20, 03:47:05,VALID,1008.64,VALID,0,VALID,95.8176,VALID,0.105969,VALID,23.1467,VALID,176,VALID,0,
2009-01-20, 03:48:05,VALID,1008.65,VALID,0,VALID,95.8252,VALID,0.105969,VALID,23.145,VALID,176,VALID,0,
2009-01-20, 03:49:05,VALID,1008.65,VALID,0,VALID,95.8023,VALID,0.105969,VALID,23.1644,VALID,176,VALID,0,
2009-01-20, 03:50:05,VALID,1008.67,VALID,0,VALID,95.81,VALID,0.105969,VALID,23.1857,VALID,174,VALID,0,
2009-01-20, 03:51:05,VALID,1008.66,VALID,0,VALID,95.7871,VALID,0.105969,VALID,23.2051,VALID,174,VALID,0,